This is the latest recevied weather packets stored in our database for station/object KB1RMA-13. If no packets are shown the sender has not sent any weather packets the latest 10 day(s).
| Time | Temp. | Humidity | Pressure | Rain* | Wind** | Luminosity | Snow |
|---|---|---|---|---|---|---|---|
| 1777738782 | 10° C | 87% | 1012.6 hPa | 0 mm | - | 258 W/m² | - |
| 1777738478 | 10° C | 87% | 1012.8 hPa | 0 mm | - | 201 W/m² | - |
| 1777738176 | 10° C | 88% | 1012.7 hPa | 0 mm | - | 269 W/m² | - |
| 1777737874 | 10° C | 89% | 1012.7 hPa | 0 mm | - | 464 W/m² | - |
| 1777737573 | 10° C | 89% | 1012.6 hPa | 0 mm | - | 340 W/m² | - |
| 1777737272 | 9.44° C | 89% | 1012.3 hPa | 0 mm | - | 299 W/m² | - |
| 1777736968 | 9.44° C | 89% | 1012.3 hPa | 0 mm | - | 336 W/m² | - |
| 1777736066 | 9.44° C | 87% | 1012.6 hPa | 0 mm | - | 145 W/m² | - |
| 1777735763 | 10° C | 86% | 1012.7 hPa | 0 mm | - | 151 W/m² | - |
| 1777735461 | 10° C | 86% | 1012.5 hPa | 0 mm | - | 240 W/m² | - |
| 1777735158 | 10° C | 87% | 1012.7 hPa | 0 mm | - | 331 W/m² | - |
| 1777734855 | 10° C | 88% | 1012.5 hPa | 0 mm | - | 371 W/m² | - |
| 1777734553 | 10° C | 88% | 1012.6 hPa | 0 mm | - | 368 W/m² | - |
| 1777734249 | 9.44° C | 89% | 1012.6 hPa | 0 mm | - | 315 W/m² | - |
| 1777733945 | 9.44° C | 89% | 1012.7 hPa | 0 mm | - | 274 W/m² | - |
| 1777733642 | 9.44° C | 89% | 1012.5 hPa | 0 mm | - | 232 W/m² | - |
| 1777733338 | 9.44° C | 88% | 1012.5 hPa | 0 mm | - | 206 W/m² | - |
| 1777733035 | 9.44° C | 88% | 1012.9 hPa | 0 mm | - | 167 W/m² | - |
| 1777732731 | 10° C | 88% | 1012.7 hPa | 0 mm | - | 281 W/m² | - |
| 1777732428 | 9.44° C | 90% | 1012.8 hPa | 0 mm | - | 279 W/m² | - |
| 1777732126 | 8.89° C | 91% | 1012.9 hPa | 0 mm | - | 198 W/m² | - |
| 1777731823 | 8.89° C | 90% | 1013.1 hPa | 0 mm | - | 229 W/m² | - |
| 1777731519 | 8.89° C | 93% | 1013.3 hPa | 0 mm | - | 313 W/m² | - |
| 1777731218 | 8.33° C | 93% | 1013.4 hPa | 0 mm | - | 348 W/m² | - |
| 1777730915 | 7.78° C | 93% | 1013.1 hPa | 0 mm | - | 287 W/m² | - |
* Rain latest hour (hover to see other rain measurements)
** Current wind speed in m/s (hover to see current wind gust speed)